Regional Weather Roundup
Issued by NWS

Home | Current Version | Previous Version | Graphics & Text | Print | Product List | Glossary On
Versions: 1 2 3 4 5 6 7 8 9 10 11 12 13 14 15 16 17 18 19 20 21 22 23 24 25 26 27 28 29 30 31 32 33 34 35 36 37 38 39 40 41 42 43 44 45 46 47 48 49
000
ASUS45 KCYS 231110
RWRWY

WYOMING REGIONAL WEATHER ROUNDUP
NATIONAL WEATHER SERVICE CHEYENNE WY
500 AM MDT TUE SEP 23 2014

NOTE:  "FAIR" INDICATES FEW OR NO CLOUDS BELOW 12,000 FEET
WITH NO SIGNIFICANT WEATHER AND/OR OBSTRUCTIONS TO VISIBILITY.

WYZ001-231200-
YELLOWSTONE NATIONAL PARK

CITY           SKY/WX    TMP DP  RH WIND       PRES   REMARKS
LK YELLOWSTONE   N/A     47  46  97 CALM      30.31S
W YELLOWSTONE  NOT AVBL

$$
WYZ002>013-054>058-071-098>099-231200-
NORTHERN WYOMING

CITY           SKY/WX    TMP DP  RH WIND       PRES   REMARKS
JACKSON        CLOUDY    48  46  93 CALM      30.24R
CODY           CLEAR     61  45  55 S3        30.07R
GREYBULL       CLEAR     53  45  74 E3        30.02R
WORLAND        CLEAR     50  45  83 S7        30.03R
SHERIDAN       PTCLDY    52  44  74 SE3       29.97R
BUFFALO        CLEAR     56  42  59 W8        30.03R
GILLETTE       MOCLDY    56  50  80 S8        29.99F
HULETT         RAIN      59  54  82 MISG      29.98
NEWCASTLE      FAIR      59  48  67 W7        29.98

$$
WYZ014>020-022>026-101>103-231200-
CENTRAL WYOMING

CITY           SKY/WX    TMP DP  RH WIND       PRES   REMARKS
BIG PINEY      CLEAR     40  37  89 CALM      30.26S
PINEDALE       CLOUDY    45  45 100 CALM      30.26S
DUBOIS         PTSUNNY   50  41  71 NW14      30.22S
LANDER         CLEAR     47  38  71 SE3       30.11R
RIVERTON       CLEAR     54  41  61 W12       30.11R
CASPER         CLEAR     53  40  61 W8        30.08S
DOUGLAS        CLEAR     49  42  77 NW5       30.06R

$$
WYZ021-027>030-104>119-231200-
SOUTHERN WYOMING

CITY           SKY/WX    TMP DP  RH WIND       PRES   REMARKS
EVANSTON       CLOUDY    53  45  74 SW6       30.27S
KEMMERER       SUNNY     43  41  93 NW12      30.28R
FORT BRIDGER   CLOUDY    54  47  78 SW7       30.29S
ROCK SPRINGS   PTCLDY    44  41  89 W8        30.24S
DIXON          CLOUDY    53  51  93 NE5       30.26S
RAWLINS        CLEAR     51  44  77 SW16      30.21S
SARATOGA       FAIR      45  43  93 SE3       30.24S
LARAMIE        CLEAR     44  41  89 SW8       30.22R
CHEYENNE       PTCLDY    56  44  64 W15       30.15S
TORRINGTON     CLEAR     50  47  89 W6        30.01R
PINE BLUFFS    FAIR      55  46  71 W9        30.09S

$$



USA.gov is the U.S. government's official web portal to all federal, state and local government web resources and services.